Time,TemperatureF,DewpointF,PressureIn,WindDirection,WindDirectionDegrees,WindSpeedMPH,WindSpeedGustMPH,Humidity,HourlyPrecipIn,Conditions,Clouds,dailyrainin,SolarRadiationWatts/m^2,SoftwareType,DateUTC
2013-10-27 00:03:00,37.1,35.0,29.77,WSW,240,5.0,5.0,91,0.00,,,0.00,0,weatherlink.com 1.10,2013-10-27 04:03:00,
2013-10-27 00:18:00,37.0,34.0,29.77,East,87,0.0,6.0,90,0.00,,,0.00,0,weatherlink.com 1.10,2013-10-27 04:18:00,
2013-10-27 00:33:00,36.9,35.0,29.77,ESE,111,2.0,5.0,91,0.00,,,0.00,0,weatherlink.com 1.10,2013-10-27 04:33:00,
2013-10-27 00:48:00,36.8,34.0,29.77,South,180,0.0,3.0,90,0.00,,,0.00,0,weatherlink.com 1.10,2013-10-27 04:48:00,
2013-10-27 01:03:00,36.3,34.0,29.76,East,93,0.0,3.0,91,0.00,,,0.00,0,weatherlink.com 1.10,2013-10-27 05:03:00,
2013-10-27 01:18:00,36.0,34.0,29.76,WSW,250,0.0,4.0,91,0.00,,,0.00,0,weatherlink.com 1.10,2013-10-27 05:18:00,
2013-10-27 01:33:00,35.7,34.0,29.76,WNW,288,1.0,3.0,92,0.00,,,0.00,0,weatherlink.com 1.10,2013-10-27 05:33:00,
2013-10-27 01:48:00,35.9,34.0,29.75,South,178,0.0,3.0,93,0.00,,,0.00,0,weatherlink.com 1.10,2013-10-27 05:48:00,
2013-10-27 02:03:00,36.4,34.0,29.75,WNW,294,1.0,3.0,92,0.00,,,0.00,0,weatherlink.com 1.10,2013-10-27 06:03:00,
2013-10-27 02:18:00,36.5,34.0,29.75,SE,125,0.0,2.0,92,0.00,,,0.00,0,weatherlink.com 1.10,2013-10-27 06:18:00,
2013-10-27 02:33:00,36.6,35.0,29.75,SW,217,0.0,1.0,92,0.00,,,0.00,0,weatherlink.com 1.10,2013-10-27 06:33:00,
2013-10-27 02:48:00,36.7,35.0,29.75,SSW,204,0.0,2.0,92,0.00,,,0.00,0,weatherlink.com 1.10,2013-10-27 06:48:00,
2013-10-27 03:03:00,36.8,34.0,29.74,East,99,0.0,3.0,90,0.00,,,0.00,0,weatherlink.com 1.10,2013-10-27 07:03:00,
2013-10-27 03:18:00,36.8,35.0,29.73,ESE,121,0.0,2.0,91,0.00,,,0.00,0,weatherlink.com 1.10,2013-10-27 07:18:00,
2013-10-27 03:33:00,36.4,34.0,29.73,East,95,0.0,2.0,91,0.00,,,0.00,0,weatherlink.com 1.10,2013-10-27 07:33:00,
2013-10-27 03:48:00,35.9,33.0,29.72,East,95,0.0,0.0,90,0.00,,,0.00,0,weatherlink.com 1.10,2013-10-27 07:48:00,
2013-10-27 04:03:00,35.6,33.0,29.72,East,95,0.0,1.0,91,0.00,,,0.00,0,weatherlink.com 1.10,2013-10-27 08:03:00,
2013-10-27 04:18:00,35.9,34.0,29.72,SSE,160,0.0,1.0,91,0.00,,,0.00,0,weatherlink.com 1.10,2013-10-27 08:18:00,
2013-10-27 04:33:00,36.0,34.0,29.71,SSE,160,0.0,1.0,92,0.00,,,0.00,0,weatherlink.com 1.10,2013-10-27 08:33:00,
2013-10-27 04:48:00,36.0,34.0,29.71,SSW,209,0.0,2.0,91,0.00,,,0.00,0,weatherlink.com 1.10,2013-10-27 08:48:00,
2013-10-27 05:03:00,36.0,34.0,29.71,SSW,209,0.0,2.0,92,0.00,,,0.00,0,weatherlink.com 1.10,2013-10-27 09:03:00,
2013-10-27 05:18:00,35.9,34.0,29.71,SSW,209,0.0,1.0,91,0.00,,,0.00,0,weatherlink.com 1.10,2013-10-27 09:18:00,
2013-10-27 05:33:00,35.8,34.0,29.72,SSW,209,0.0,0.0,91,0.00,,,0.00,0,weatherlink.com 1.10,2013-10-27 09:33:00,
2013-10-27 05:48:00,35.9,34.0,29.72,SSW,209,0.0,1.0,91,0.00,,,0.00,0,weatherlink.com 1.10,2013-10-27 09:48:00,
2013-10-27 06:03:00,35.8,34.0,29.72,SSW,209,0.0,0.0,91,0.00,,,0.00,0,weatherlink.com 1.10,2013-10-27 10:03:00,
2013-10-27 06:19:00,35.8,34.0,29.73,SSW,209,0.0,0.0,92,0.00,,,0.00,0,weatherlink.com 1.10,2013-10-27 10:19:00,
2013-10-27 06:33:00,35.9,34.0,29.73,SSW,209,0.0,0.0,93,0.00,,,0.00,0,weatherlink.com 1.10,2013-10-27 10:33:00,
2013-10-27 06:48:00,36.2,34.0,29.74,SSW,209,0.0,1.0,91,0.00,,,0.00,0,weatherlink.com 1.10,2013-10-27 10:48:00,
2013-10-27 07:03:00,36.2,34.0,29.74,SSW,209,0.0,0.0,91,0.00,,,0.00,0,weatherlink.com 1.10,2013-10-27 11:03:00,
2013-10-27 07:18:00,36.2,34.0,29.74,SSW,209,0.0,0.0,92,0.00,,,0.00,0,weatherlink.com 1.10,2013-10-27 11:18:00,
2013-10-27 07:33:00,36.3,35.0,29.75,SSW,209,0.0,2.0,93,0.00,,,0.00,5,weatherlink.com 1.10,2013-10-27 11:33:00,
2013-10-27 07:48:00,36.2,34.0,29.75,SSE,159,0.0,2.0,92,0.00,,,0.00,5,weatherlink.com 1.10,2013-10-27 11:48:00,
2013-10-27 08:03:00,36.3,34.0,29.75,SSE,159,0.0,1.0,92,0.00,,,0.00,5,weatherlink.com 1.10,2013-10-27 12:03:00,
2013-10-27 08:18:00,36.4,35.0,29.76,SSE,159,0.0,1.0,93,0.00,,,0.00,18,weatherlink.com 1.10,2013-10-27 12:18:00,
2013-10-27 08:33:00,36.9,35.0,29.76,SSE,149,0.0,2.0,91,0.00,,,0.00,7,weatherlink.com 1.10,2013-10-27 12:33:00,
2013-10-27 08:48:00,37.2,35.0,29.77,SSE,153,0.0,3.0,90,0.00,,,0.00,12,weatherlink.com 1.10,2013-10-27 12:48:00,
2013-10-27 09:03:00,37.5,35.0,29.77,West,276,0.0,2.0,91,0.00,,,0.00,35,weatherlink.com 1.10,2013-10-27 13:03:00,
2013-10-27 09:18:00,37.8,36.0,29.77,SW,234,0.0,2.0,91,0.00,,,0.00,14,weatherlink.com 1.10,2013-10-27 13:18:00,
2013-10-27 09:33:00,37.9,35.0,29.78,SW,229,1.0,2.0,90,0.00,,,0.00,11,weatherlink.com 1.10,2013-10-27 13:33:00,
2013-10-27 09:48:00,37.9,36.0,29.79,SW,229,0.0,0.0,91,0.00,,,0.00,14,weatherlink.com 1.10,2013-10-27 13:48:00,
2013-10-27 10:03:00,37.8,36.0,29.79,SW,229,0.0,0.0,92,0.00,,,0.00,26,weatherlink.com 1.10,2013-10-27 14:03:00,
2013-10-27 10:18:00,38.0,36.0,29.79,SW,229,0.0,2.0,92,0.00,,,0.00,58,weatherlink.com 1.10,2013-10-27 14:18:00,
2013-10-27 10:33:00,38.5,37.0,29.79,ENE,76,1.0,3.0,93,0.00,,,0.00,40,weatherlink.com 1.10,2013-10-27 14:33:00,
2013-10-27 10:48:00,38.7,37.0,29.79,ENE,74,0.0,2.0,92,0.00,,,0.00,40,weatherlink.com 1.10,2013-10-27 14:48:00,
2013-10-27 11:03:00,39.2,37.0,29.79,SE,144,2.0,3.0,91,0.00,,,0.00,63,weatherlink.com 1.10,2013-10-27 15:03:00,
2013-10-27 11:18:00,39.6,37.0,29.80,WNW,286,0.0,4.0,90,0.00,,,0.00,53,weatherlink.com 1.10,2013-10-27 15:18:00,
2013-10-27 11:34:00,39.3,37.0,29.80,SE,128,1.0,4.0,91,0.00,,,0.00,91,weatherlink.com 1.10,2013-10-27 15:34:00,
2013-10-27 11:49:00,39.7,38.0,29.80,ENE,67,0.0,3.0,92,0.00,,,0.00,135,weatherlink.com 1.10,2013-10-27 15:49:00,
2013-10-27 12:04:00,39.5,37.0,29.81,NW,316,1.0,6.0,91,0.00,,,0.00,53,weatherlink.com 1.10,2013-10-27 16:04:00,
2013-10-27 12:19:00,39.5,37.0,29.81,WSW,253,0.0,3.0,91,0.00,,,0.00,452,weatherlink.com 1.10,2013-10-27 16:19:00,
2013-10-27 12:34:00,41.2,38.0,29.81,SE,137,2.0,7.0,88,0.00,,,0.00,74,weatherlink.com 1.10,2013-10-27 16:34:00,
2013-10-27 12:49:00,40.9,38.0,29.81,SSW,209,2.0,4.0,90,0.00,,,0.00,151,weatherlink.com 1.10,2013-10-27 16:49:00,
2013-10-27 13:04:00,41.3,38.0,29.81,NW,318,1.0,10.0,88,0.00,,,0.00,329,weatherlink.com 1.10,2013-10-27 17:04:00,
2013-10-27 13:19:00,41.8,38.0,29.82,WNW,292,3.0,5.0,86,0.00,,,0.00,288,weatherlink.com 1.10,2013-10-27 17:19:00,
2013-10-27 13:34:00,42.9,37.0,29.82,WSW,246,7.0,7.0,81,0.00,,,0.00,424,weatherlink.com 1.10,2013-10-27 17:34:00,
2013-10-27 13:49:00,43.2,37.0,29.82,WSW,251,1.0,9.0,78,0.00,,,0.00,304,weatherlink.com 1.10,2013-10-27 17:49:00,
2013-10-27 14:04:00,42.9,37.0,29.82,SE,140,0.0,4.0,79,0.00,,,0.00,178,weatherlink.com 1.10,2013-10-27 18:04:00,
2013-10-27 14:19:00,42.7,35.0,29.82,South,171,0.0,4.0,73,0.00,,,0.00,44,weatherlink.com 1.10,2013-10-27 18:19:00,
2013-10-27 14:34:00,40.9,33.0,29.83,WNW,283,3.0,6.0,72,0.00,,,0.00,40,weatherlink.com 1.10,2013-10-27 18:34:00,
2013-10-27 14:49:00,40.1,32.0,29.84,NW,311,4.0,5.0,74,0.00,,,0.00,72,weatherlink.com 1.10,2013-10-27 18:49:00,
2013-10-27 15:04:00,39.8,33.0,29.84,SE,132,1.0,5.0,76,0.00,,,0.00,56,weatherlink.com 1.10,2013-10-27 19:04:00,
2013-10-27 15:19:00,40.1,33.0,29.84,West,279,1.0,7.0,75,0.00,,,0.00,202,weatherlink.com 1.10,2013-10-27 19:19:00,
2013-10-27 15:34:00,40.9,33.0,29.86,WSW,243,2.0,6.0,72,0.00,,,0.00,144,weatherlink.com 1.10,2013-10-27 19:34:00,
2013-10-27 15:49:00,40.7,33.0,29.86,West,260,0.0,7.0,73,0.00,,,0.00,172,weatherlink.com 1.10,2013-10-27 19:49:00,
2013-10-27 16:04:00,40.7,33.0,29.86,West,271,2.0,7.0,73,0.00,,,0.00,121,weatherlink.com 1.10,2013-10-27 20:04:00,
2013-10-27 16:19:00,40.1,32.0,29.86,WNW,296,2.0,4.0,74,0.00,,,0.00,60,weatherlink.com 1.10,2013-10-27 20:19:00,
2013-10-27 16:34:00,39.3,32.0,29.87,WNW,283,2.0,4.0,75,0.00,,,0.00,33,weatherlink.com 1.10,2013-10-27 20:34:00,
2013-10-27 16:49:00,38.6,32.0,29.87,ESE,121,0.0,4.0,77,0.00,,,0.00,19,weatherlink.com 1.10,2013-10-27 20:49:00,
2013-10-27 17:04:00,37.9,31.0,29.88,SW,236,5.0,5.0,77,0.00,,,0.00,18,weatherlink.com 1.10,2013-10-27 21:04:00,
2013-10-27 17:19:00,37.9,31.0,29.88,WSW,243,2.0,4.0,76,0.00,,,0.00,9,weatherlink.com 1.10,2013-10-27 21:19:00,
2013-10-27 17:34:00,37.8,32.0,29.89,ESE,105,1.0,2.0,80,0.00,,,0.00,0,weatherlink.com 1.10,2013-10-27 21:34:00,
2013-10-27 17:49:00,37.7,32.0,29.89,SE,133,0.0,2.0,81,0.00,,,0.00,0,weatherlink.com 1.10,2013-10-27 21:49:00,
2013-10-27 18:04:00,37.4,32.0,29.89,SE,142,0.0,1.0,81,0.00,,,0.00,0,weatherlink.com 1.10,2013-10-27 22:04:00,
2013-10-27 18:19:00,36.8,32.0,29.90,South,171,1.0,2.0,82,0.00,,,0.00,0,weatherlink.com 1.10,2013-10-27 22:19:00,
2013-10-27 18:34:00,36.1,31.0,29.91,South,171,0.0,1.0,82,0.00,,,0.00,0,weatherlink.com 1.10,2013-10-27 22:34:00,
2013-10-27 18:49:00,35.3,31.0,29.92,South,171,0.0,0.0,83,0.00,,,0.00,0,weatherlink.com 1.10,2013-10-27 22:49:00,
2013-10-27 19:04:00,34.8,31.0,29.93,South,171,0.0,0.0,85,0.00,,,0.00,0,weatherlink.com 1.10,2013-10-27 23:04:00,
2013-10-27 19:19:00,34.6,31.0,29.93,South,171,0.0,0.0,86,0.00,,,0.00,0,weatherlink.com 1.10,2013-10-27 23:19:00,
2013-10-27 19:34:00,34.9,31.0,29.94,South,171,0.0,1.0,85,0.00,,,0.00,0,weatherlink.com 1.10,2013-10-27 23:34:00,
2013-10-27 19:49:00,35.1,31.0,29.94,South,171,0.0,1.0,84,0.00,,,0.00,0,weatherlink.com 1.10,2013-10-27 23:49:00,
2013-10-27 20:04:00,35.0,30.0,29.94,South,171,0.0,0.0,83,0.00,,,0.00,0,weatherlink.com 1.10,2013-10-28 00:04:00,
2013-10-27 20:20:00,34.7,30.0,29.95,South,171,0.0,0.0,83,0.00,,,0.00,0,weatherlink.com 1.10,2013-10-28 00:20:00,
2013-10-27 20:35:00,34.4,30.0,29.95,South,171,0.0,0.0,84,0.00,,,0.00,0,weatherlink.com 1.10,2013-10-28 00:35:00,
2013-10-27 20:50:00,34.5,30.0,29.95,South,171,0.0,0.0,84,0.00,,,0.00,0,weatherlink.com 1.10,2013-10-28 00:50:00,
2013-10-27 21:05:00,34.4,30.0,29.95,South,171,0.0,0.0,84,0.00,,,0.00,0,weatherlink.com 1.10,2013-10-28 01:05:00,
2013-10-27 21:20:00,34.6,30.0,29.96,South,171,0.0,0.0,84,0.00,,,0.00,0,weatherlink.com 1.10,2013-10-28 01:20:00,
2013-10-27 21:35:00,34.8,30.0,29.96,South,171,0.0,0.0,83,0.00,,,0.00,0,weatherlink.com 1.10,2013-10-28 01:35:00,
2013-10-27 21:50:00,34.9,31.0,29.96,South,171,0.0,1.0,85,0.00,,,0.00,0,weatherlink.com 1.10,2013-10-28 01:50:00,
2013-10-27 22:05:00,35.0,31.0,29.97,South,171,0.0,1.0,85,0.00,,,0.00,0,weatherlink.com 1.10,2013-10-28 02:05:00,
2013-10-27 22:20:00,34.7,31.0,29.97,South,171,0.0,1.0,85,0.00,,,0.00,0,weatherlink.com 1.10,2013-10-28 02:20:00,
2013-10-27 22:35:00,34.5,31.0,29.97,South,171,0.0,0.0,86,0.00,,,0.00,0,weatherlink.com 1.10,2013-10-28 02:35:00,
2013-10-27 22:50:00,34.5,31.0,29.97,South,171,0.0,0.0,88,0.00,,,0.00,0,weatherlink.com 1.10,2013-10-28 02:50:00,
2013-10-27 23:05:00,34.6,31.0,29.97,South,171,0.0,0.0,88,0.00,,,0.00,0,weatherlink.com 1.10,2013-10-28 03:05:00,
2013-10-27 23:20:00,34.4,31.0,29.97,South,171,0.0,0.0,88,0.00,,,0.00,0,weatherlink.com 1.10,2013-10-28 03:20:00,
2013-10-27 23:35:00,34.4,32.0,29.98,WSW,245,1.0,2.0,90,0.00,,,0.00,0,weatherlink.com 1.10,2013-10-28 03:35:00,
2013-10-27 23:50:00,34.3,31.0,29.98,WSW,245,0.0,2.0,89,0.00,,,0.00,0,weatherlink.com 1.10,2013-10-28 03:50:00,